Shannon, Ireland

11:42 AM IST on June 25, 2017 (GMT +0100)
Shannon

Weather History for EINN - July, 2013

Change the Weather History Date:

Thursday, July 4, 2013

  Actual Average Record
Temperature  
Mean Temperature 58 °F -  
Max Temperature 60 °F 67 °F 69 °F (2000)
Min Temperature 53 °F 54 °F 46 °F (2004)
Degree Days  
Heating Degree Days 8    
Growing Degree Days 8 (Base 50)    
Moisture  
Dew Point 53 °F    
Average Humidity 81    
Maximum Humidity 100    
Minimum Humidity 56    
Precipitation  
Precipitation 0.00 in 0.08 in - ()
Sea Level Pressure  
Sea Level Pressure 30.05 in    
Wind  
Wind Speed 14 mph ()    
Max Wind Speed 22 mph    
Max Gust Speed 32 mph    
Visibility 6.5 miles    
Events Rain    
Averages and records for this station are not official NWS values.
T = Trace of Precipitation, MM = Missing Value Source: Averaged Metar Reports

Daily Weather History Graph

Daily Weather History Graph

Search for Another Location

Airport or City:

Trip Planner

Search our weather history database for the weather conditions in past years. The results will help you decide how hot, cold, wet, or windy it might be!

Date:

Astronomy

Jul. 04, 2013 Rise Set
Actual Time 5:18 AM IST 10:01 PM IST
Civil Twilight 4:28 AM IST 10:50 PM IST
Nautical Twilight 3:08 AM IST 12:10 AM IST
Astronomical Twilight Sun does not set Sun does not set
Moon 2:40 AM IST (7/4) 6:43 PM IST (7/4)
Length of Visible Light 18h 21m
Length of Day
16h 42m
Waning Crescent, 13% of the Moon is Illuminated
Jul 4
Waning Crescent
Jul 8
New
Jul 16
First Quarter
Jul 22
Full
Jul 29
Last Quarter

Hourly Weather History & Observations

Time (IST) Temp. Dew Point Humidity Pressure Visibility Wind Dir Wind Speed Gust Speed Precip Events Conditions
12:00 AM 60.8 °F 59.0 °F 94% 29.86 in 6.2 mi SSE 8.1 mph - N/A   Mostly Cloudy
12:30 AM 62.6 °F 59.0 °F 88% 29.83 in 6.2 mi SSW 13.8 mph - N/A   Mostly Cloudy
1:00 AM 62 °F 59 °F 87% 29.85 in 16 mi SSW 15.7 mph - -   Mostly Cloudy
1:00 AM 62.6 °F 59.0 °F 88% 29.83 in 6.2 mi SSW 16.1 mph - N/A   Mostly Cloudy
1:30 AM 62.6 °F 59.0 °F 88% 29.83 in 6.2 mi SSW 13.8 mph - N/A   Mostly Cloudy
2:00 AM 62.6 °F 59.0 °F 88% 29.83 in 6.2 mi SSW 13.8 mph - N/A   Mostly Cloudy
2:30 AM 62.6 °F 59.0 °F 88% 29.83 in 6.2 mi South 9.2 mph - N/A Rain Light Rain
3:00 AM 60.8 °F 59.0 °F 94% 29.83 in 6.2 mi South 13.8 mph - N/A Rain Light Rain
3:30 AM 60.8 °F 59.0 °F 94% 29.83 in 6.2 mi SSW 13.8 mph - N/A Rain Light Rain
4:00 AM 60.8 °F 59.0 °F 94% 29.83 in 3.1 mi South 12.7 mph - N/A Rain Light Rain
4:30 AM 59.0 °F 59.0 °F 100% 29.83 in 4.3 mi South 12.7 mph - N/A Rain Light Rain
5:00 AM 59.0 °F 59.0 °F 100% 29.83 in 2.5 mi SW 19.6 mph - N/A   Light Drizzle
5:30 AM 59.0 °F 59.0 °F 100% 29.86 in 6.2 mi SW 19.6 mph - N/A   Mostly Cloudy
6:00 AM 57.2 °F 57.2 °F 100% 29.89 in 4.3 mi WSW 20.7 mph 32.2 mph N/A   Mostly Cloudy
6:30 AM 57.2 °F 55.4 °F 94% 29.92 in 6.2 mi WSW 15.0 mph - N/A   Mostly Cloudy
7:00 AM 57 °F 54 °F 87% 29.94 in 12 mi WSW 17.9 mph - - Rain Light Drizzle
7:00 AM 57.2 °F 53.6 °F 88% 29.92 in 6.2 mi WSW 18.4 mph - N/A   Mostly Cloudy
7:30 AM 57.2 °F 53.6 °F 88% 29.95 in 6.2 mi WSW 20.7 mph - N/A   Partly Cloudy
8:00 AM 57.2 °F 53.6 °F 88% 29.95 in 6.2 mi WSW 16.1 mph - N/A   Mostly Cloudy
8:30 AM 59.0 °F 53.6 °F 82% 29.98 in 6.2 mi WSW 16.1 mph - N/A   Mostly Cloudy
9:00 AM 59.0 °F 53.6 °F 82% 29.98 in 6.2 mi WSW 20.7 mph - N/A   Light Drizzle
9:30 AM 57.2 °F 53.6 °F 88% 30.01 in 5.0 mi WSW 20.7 mph - N/A   Mostly Cloudy
10:00 AM 59.0 °F 53.6 °F 82% 30.01 in 6.2 mi West 16.1 mph - N/A   Mostly Cloudy
10:30 AM 57.2 °F 53.6 °F 88% 30.04 in 6.2 mi West 18.4 mph - N/A   Mostly Cloudy
11:00 AM 59.0 °F 51.8 °F 77% 30.04 in 6.2 mi WSW 20.7 mph - N/A   Mostly Cloudy
11:30 AM 57.2 °F 53.6 °F 88% 30.06 in 6.2 mi West 21.9 mph - N/A   Mostly Cloudy
12:00 PM 57.2 °F 51.8 °F 82% 30.06 in 6.2 mi West 16.1 mph - N/A   Mostly Cloudy
12:30 PM 59.0 °F 51.8 °F 77% 30.09 in 6.2 mi WSW 16.1 mph - N/A   Mostly Cloudy
1:00 PM 58 °F 51 °F 69% 30.12 in 12 mi West 17.9 mph - - Rain Light Drizzle
1:00 PM 57.2 °F 50.0 °F 77% 30.12 in 6.2 mi West 18.4 mph - N/A   Mostly Cloudy
1:30 PM 59.0 °F 48.2 °F 67% 30.12 in 6.2 mi West 17.3 mph - N/A   Mostly Cloudy
2:00 PM 60.8 °F 50.0 °F 68% 30.12 in 6.2 mi WSW 17.3 mph - N/A   Mostly Cloudy
2:30 PM 60.8 °F 50.0 °F 68% 30.15 in 6.2 mi West 16.1 mph - N/A   Mostly Cloudy
3:00 PM 59.0 °F 50.0 °F 72% 30.15 in 6.2 mi WSW 12.7 mph - N/A   Mostly Cloudy
3:30 PM 60.8 °F 50.0 °F 68% 30.15 in 6.2 mi WSW 17.3 mph - N/A   Mostly Cloudy
4:00 PM 59.0 °F 51.8 °F 77% 30.18 in 6.2 mi WSW 15.0 mph - N/A Rain Light Rain Showers
4:30 PM 60.8 °F 50.0 °F 68% 30.18 in 6.2 mi WSW 17.3 mph - N/A   Mostly Cloudy
5:00 PM 59.0 °F 48.2 °F 67% 30.18 in 6.2 mi WSW 17.3 mph - N/A   Mostly Cloudy
5:30 PM 59.0 °F 50.0 °F 72% 30.18 in 6.2 mi WSW 17.3 mph - N/A   Mostly Cloudy
6:00 PM 59.0 °F 50.0 °F 72% 30.18 in 6.2 mi WSW 18.4 mph - N/A   Mostly Cloudy
6:30 PM 59.0 °F 48.2 °F 67% 30.21 in 6.2 mi WSW 18.4 mph - N/A   Mostly Cloudy
7:00 PM 60 °F 49 °F 56% 30.22 in 12 mi WSW 17.9 mph - -   Partly Cloudy
7:00 PM 59.0 °F 48.2 °F 67% 30.21 in 6.2 mi WSW 17.3 mph - N/A   Mostly Cloudy
7:30 PM 59.0 °F 50.0 °F 72% 30.21 in 6.2 mi WSW 15.0 mph - N/A   Scattered Clouds
8:00 PM 59.0 °F 48.2 °F 67% 30.21 in 6.2 mi WSW 13.8 mph - N/A   Partly Cloudy
8:30 PM 57.2 °F 50.0 °F 77% 30.24 in 6.2 mi WSW 10.4 mph - N/A   Partly Cloudy
9:00 PM 57.2 °F 50.0 °F 77% 30.24 in 6.2 mi WSW 12.7 mph - N/A   Partly Cloudy
9:30 PM 55.4 °F 50.0 °F 82% 30.24 in 6.2 mi WSW 10.4 mph - N/A   Partly Cloudy
10:00 PM 55.4 °F 50.0 °F 82% 30.27 in 6.2 mi SW 6.9 mph - N/A   Partly Cloudy
10:30 PM 55.4 °F 50.0 °F 82% 30.27 in 6.2 mi SW 9.2 mph - N/A   Partly Cloudy
11:00 PM 55.4 °F 50.0 °F 82% 30.27 in 6.2 mi SW 8.1 mph - N/A   Partly Cloudy
11:30 PM 53.6 °F 50.0 °F 88% 30.27 in - SSW 8.1 mph - N/A   Clear